When you browse on this site, cookies collect data to enhance your experience and personalize the content and advertising you see.
Visit our Privacy Policy to learn more. By continuing to use the site, you agree to this use of cookies and data.
  • In Hungary
  • List of Countries
  • For 7 days
  • Water Temperature
  • Satellite Maps
  • Weather Map
  • News
  • Weather Widgets
  • user-avatar
    Login

    Hourly Weather Holhol

    Today, 21 November, Wednesday

    Time Temperature Precipitation Wind Pressure Humidity
    00:00 +26°C° 0 mm 2 mps 716 mmHg 57%
    01:00 +25°C° 0 mm 1 mps 716 mmHg 60%
    02:00 +25°C° 0 mm 1 mps 716 mmHg 62%
    03:00 +24°C° 0 mm 1 mps 715 mmHg 64%
    04:00 +24°C° 0 mm 1 mps 716 mmHg 66%
    05:00 +24°C° 0 mm 1 mps 716 mmHg 67%
    06:00 +23°C° 0 mm 1 mps 716 mmHg 68%
    07:00 +24°C° 0 mm 1 mps 716 mmHg 62%
    08:00 +25°C° 0 mm 2 mps 717 mmHg 55%
    09:00 +27°C° 0 mm 2 mps 717 mmHg 49%
    10:00 +28°C° 0 mm 3 mps 717 mmHg 43%
    11:00 +29°C° 0 mm 3 mps 717 mmHg 38%
    12:00 +30°C° 0 mm 4 mps 716 mmHg 32%
    13:00 +32°C° 0 mm 4 mps 716 mmHg 31%
    14:00 +32°C° 0 mm 5 mps 715 mmHg 30%
    15:00 +33°C° 0 mm 5 mps 715 mmHg 28%
    16:00 +30°C° 0 mm 5 mps 715 mmHg 32%
    17:00 +29°C° 0 mm 4 mps 715 mmHg 35%
    18:00 +28°C° 0 mm 4 mps 715 mmHg 38%
    19:00 +28°C° 0 mm 4 mps 715 mmHg 41%
    20:00 +27°C° 0 mm 3 mps 716 mmHg 45%
    21:00 +27°C° 0 mm 2 mps 716 mmHg 48%
    22:00 +26°C° 0 mm 2 mps 716 mmHg 50%
    23:00 +26°C° 0 mm 2 mps 716 mmHg 53%

    Tomorrow, 22 November, Thursday

    Time Temperature Precipitation Wind Pressure Humidity
    00:00 +25°C° 0 mm 2 mps 716 mmHg 55%
    01:00 +25°C° 0 mm 1 mps 716 mmHg 58%
    02:00 +25°C° 0 mm 1 mps 715 mmHg 60%
    03:00 +24°C° 0 mm 1 mps 715 mmHg 62%
    04:00 +24°C° 0 mm 1 mps 715 mmHg 64%
    05:00 +24°C° 0 mm 1 mps 715 mmHg 65%
    06:00 +23°C° 0 mm 1 mps 715 mmHg 67%
    07:00 +24°C° 0 mm 2 mps 716 mmHg 62%
    08:00 +25°C° 0 mm 2 mps 716 mmHg 58%
    09:00 +26°C° 0 mm 3 mps 717 mmHg 53%
    10:00 +28°C° 0 mm 4 mps 717 mmHg 49%
    11:00 +29°C° 0 mm 5 mps 716 mmHg 44%
    12:00 +30°C° 0 mm 5 mps 716 mmHg 39%
    13:00 +30°C° 0 mm 6 mps 715 mmHg 38%
    14:00 +32°C° 0 mm 6 mps 715 mmHg 37%
    15:00 +32°C° 0 mm 6 mps 714 mmHg 36%
    16:00 +30°C° 0 mm 6 mps 714 mmHg 41%
    17:00 +29°C° 0 mm 5 mps 714 mmHg 46%
    18:00 +28°C° 0 mm 5 mps 715 mmHg 51%
    19:00 +27°C° 0 mm 5 mps 715 mmHg 55%
    20:00 +27°C° 0 mm 4 mps 716 mmHg 58%
    21:00 +26°C° 0 mm 4 mps 716 mmHg 62%
    22:00 +26°C° 0 mm 4 mps 716 mmHg 65%
    23:00 +25°C° 0 mm 4 mps 716 mmHg 67%

    Day after tomorrow, 23 November, Friday

    Time Temperature Precipitation Wind Pressure Humidity
    00:00 +25°C° 0 mm 4 mps 716 mmHg 70%
    01:00 +25°C° 0 mm 4 mps 715 mmHg 72%
    02:00 +25°C° 0 mm 4 mps 715 mmHg 74%
    03:00 +23°C° 0 mm 4 mps 715 mmHg 76%
    04:00 +23°C° 0 mm 4 mps 715 mmHg 77%
    05:00 +24°C° 0 mm 3 mps 715 mmHg 77%
    06:00 +24°C° 0 mm 3 mps 715 mmHg 78%
    07:00 +25°C° 0 mm 4 mps 716 mmHg 74%
    08:00 +26°C° 0 mm 4 mps 716 mmHg 70%
    09:00 +27°C° 0 mm 5 mps 717 mmHg 67%
    10:00 +27°C° 0.1 mm 5 mps 717 mmHg 64%
    11:00 +28°C° 0.1 mm 5 mps 716 mmHg 62%
    12:00 +29°C° 0.1 mm 6 mps 716 mmHg 59%
    13:00 +29°C° 0 mm 6 mps 715 mmHg 60%
    14:00 +29°C° 0 mm 6 mps 714 mmHg 60%
    15:00 +29°C° 0 mm 6 mps 714 mmHg 61%
    16:00 +28°C° 0 mm 6 mps 714 mmHg 65%
    17:00 +27°C° 0 mm 6 mps 714 mmHg 69%
    18:00 +27°C° 0 mm 6 mps 714 mmHg 73%
    19:00 +26°C° 0.1 mm 6 mps 715 mmHg 74%
    20:00 +26°C° 0.1 mm 6 mps 715 mmHg 76%
    21:00 +26°C° 0.1 mm 6 mps 716 mmHg 77%
    22:00 +26°C° 0.1 mm 5 mps 716 mmHg 78%
    23:00 +25°C° 0.1 mm 5 mps 715 mmHg 79%

    24 November, Saturday

    Time Temperature Precipitation Wind Pressure Humidity
    00:00 +25°C° 0.1 mm 5 mps 715 mmHg 79%
    01:00 +25°C° 0.1 mm 5 mps 715 mmHg 80%
    02:00 +25°C° 0.1 mm 4 mps 715 mmHg 80%
    03:00 +25°C° 0.1 mm 4 mps 714 mmHg 81%
    04:00 +25°C° 0.1 mm 4 mps 715 mmHg 81%
    05:00 +25°C° 0.1 mm 4 mps 715 mmHg 81%
    06:00 +25°C° 0.1 mm 4 mps 715 mmHg 81%
    07:00 +25°C° 0 mm 4 mps 716 mmHg 77%
    08:00 +26°C° 0 mm 4 mps 716 mmHg 73%
    09:00 +27°C° 0 mm 5 mps 717 mmHg 68%
    10:00 +28°C° 0 mm 5 mps 716 mmHg 64%
    11:00 +29°C° 0 mm 5 mps 716 mmHg 59%
    12:00 +30°C° 0 mm 5 mps 716 mmHg 55%
    13:00 +30°C° 0 mm 5 mps 715 mmHg 55%
    14:00 +30°C° 0 mm 6 mps 714 mmHg 55%
    15:00 +30°C° 0 mm 6 mps 714 mmHg 55%
    16:00 +29°C° 0 mm 6 mps 714 mmHg 60%
    17:00 +28°C° 0 mm 6 mps 714 mmHg 65%
    18:00 +27°C° 0 mm 5 mps 714 mmHg 70%
    19:00 +27°C° 0.1 mm 5 mps 715 mmHg 72%
    20:00 +27°C° 0.1 mm 5 mps 715 mmHg 75%
    21:00 +27°C° 0.1 mm 5 mps 716 mmHg 78%
    22:00 +26°C° 0.1 mm 4 mps 716 mmHg 78%
    23:00 +26°C° 0.1 mm 4 mps 715 mmHg 79%

    25 November, Sunday

    Time Temperature Precipitation Wind Pressure Humidity
    00:00 +26°C° 0.1 mm 4 mps 715 mmHg 80%
    01:00 +26°C° 0.1 mm 4 mps 715 mmHg 81%
    02:00 +26°C° 0.1 mm 4 mps 715 mmHg 81%
    03:00 +25°C° 0.1 mm 4 mps 714 mmHg 82%
    04:00 +25°C° 0.1 mm 4 mps 714 mmHg 82%
    05:00 +25°C° 0.1 mm 4 mps 715 mmHg 83%
    06:00 +25°C° 0.1 mm 4 mps 715 mmHg 83%
    07:00 +26°C° 0.1 mm 4 mps 716 mmHg 80%
    08:00 +26°C° 0.1 mm 5 mps 716 mmHg 77%
    09:00 +27°C° 0.1 mm 5 mps 717 mmHg 74%
    10:00 +27°C° 0.3 mm 5 mps 716 mmHg 71%
    11:00 +28°C° 0.3 mm 5 mps 716 mmHg 67%
    12:00 +29°C° 0.3 mm 5 mps 715 mmHg 64%
    13:00 +29°C° 0 mm 5 mps 715 mmHg 63%
    14:00 +29°C° 0 mm 6 mps 714 mmHg 62%
    15:00 +30°C° 0 mm 6 mps 713 mmHg 60%
    16:00 +29°C° 0 mm 5 mps 714 mmHg 64%
    17:00 +28°C° 0 mm 5 mps 714 mmHg 68%
    18:00 +27°C° 0 mm 5 mps 714 mmHg 73%
    19:00 +27°C° 0 mm 5 mps 715 mmHg 74%
    20:00 +27°C° 0 mm 4 mps 715 mmHg 76%
    21:00 +27°C° 0 mm 4 mps 715 mmHg 78%
    22:00 +26°C° 0 mm 3 mps 715 mmHg 79%
    23:00 +26°C° 0 mm 3 mps 715 mmHg 80%

    26 November, Monday

    Time Temperature Precipitation Wind Pressure Humidity
    00:00 +26°C° 0 mm 3 mps 714 mmHg 82%
    01:00 +26°C° 0.1 mm 3 mps 714 mmHg 82%
    02:00 +26°C° 0.1 mm 3 mps 714 mmHg 83%
    03:00 +26°C° 0.1 mm 3 mps 713 mmHg 83%
    04:00 +26°C° 0.1 mm 3 mps 714 mmHg 83%
    05:00 +25°C° 0.1 mm 3 mps 714 mmHg 84%
    06:00 +25°C° 0.1 mm 3 mps 714 mmHg 84%
    07:00 +26°C° 0.3 mm 3 mps 715 mmHg 81%
    08:00 +26°C° 0.3 mm 4 mps 715 mmHg 77%
    09:00 +27°C° 0.3 mm 4 mps 716 mmHg 74%
    10:00 +28°C° 0.3 mm 4 mps 715 mmHg 71%
    11:00 +28°C° 0.3 mm 5 mps 715 mmHg 68%
    12:00 +29°C° 0.3 mm 5 mps 714 mmHg 65%
    13:00 +29°C° 0.1 mm 5 mps 713 mmHg 65%
    14:00 +29°C° 0.1 mm 5 mps 713 mmHg 65%
    15:00 +29°C° 0.1 mm 5 mps 712 mmHg 65%
    16:00 +28°C° 0 mm 5 mps 713 mmHg 68%
    17:00 +28°C° 0 mm 5 mps 713 mmHg 71%
    18:00 +27°C° 0 mm 5 mps 713 mmHg 74%
    19:00 +27°C° 0 mm 4 mps 714 mmHg 76%
    20:00 +27°C° 0 mm 4 mps 714 mmHg 78%
    21:00 +26°C° 0 mm 4 mps 715 mmHg 80%
    22:00 +26°C° 0.1 mm 4 mps 714 mmHg 81%
    23:00 +26°C° 0.1 mm 4 mps 714 mmHg 81%
    Show more